[[{"header":{"parameterUnit":"m.s-1","parameterCategory":1,"la1":30.2991,"la2":30.254,"lo1":-89.0895,"lo2":-89.0444,"dy":0.0017,"dx":0.0017,"nx":28,"ny":28,"refTime":"2024-08-04T21:00:00:Z","depth":0,"parameterNumber":2,"parameterNumberName":"U-component_of_WINDS"},"data":[0,0,0,0,0,0,0,0,0,0,0,0,0,0,0,0,0,0,0,0,0,0,0,0,0,0,0,0,0,0,0,0,0,0,0,0,0,0,0,0,0,0,0,0,0,0,0,0,0,0,0,0,0,0,0,0,0,0,0.6185,0.6185,0,0.6189,0.6189,0.6189,0.6176,0.6176,0.6175,0.6175,0.6176,0.6176,0.6177,0,0,0,0,0,0,0,0,0,0,0,0,0,0.6165,0.6166,0.6185,0.6185,0.6185,0.6189,0.6189,0.6189,0.6176,0.6176,0.6175,0.6175,0.6176,0.6176,0.6177,0,0,0,0,0,0,0,0,0,0,0,0,0,0.6172,0.6166,0.6185,0.6179,0.6179,0.6189,0.6189,0.6189,0.6176,0.6176,0.6175,0.6175,0.6176,0.6176,0.6177,0.6192,0,0,0.6179,0.6179,0,0,0,0,0,0,0,0,0.6171,0.6173,0.618,0.618,0.6179,0.6182,0.6182,0.619,0.6177,0.6177,0.6175,0.6174,0.6178,0.6179,0.618,0.6192,0.6192,0.6179,0.6179,0.6179,0.6179,0,0,0,0,0,0,0,0.6171,0.6172,0.6187,0.618,0.618,0.6176,0.6176,0.6184,0.6181,0.6177,0.6176,0.6177,0.6178,0.618,0.618,0.6192,0.6179,0.6179,0.618,0.618,0.6218,0.6219,0,0,0,0,0,0,0.6172,0.6172,0.6186,0.6187,0.6174,0.6177,0.6177,0.6181,0.6181,0.618,0.6178,0.6176,0.6179,0.618,0.618,0.62,0.6179,0.618,0.618,0.6218,0.6218,0.6219,0,0,0,0,0,0,0.6171,0.6173,0.6186,0.6179,0.6181,0.6178,0.6183,0.6182,0.6184,0.6181,0.618,0.618,0.6179,0.618,0.619,0.6199,0.618,0.6181,0.6217,0.6218,0.6219,0.6237,0,0,0,0,0,0,0.6171,0.6173,0.6179,0.6179,0.6181,0.6196,0.6183,0.6182,0.6185,0.6184,0.6183,0.6183,0.6178,0.6189,0.619,0.62,0.6181,0.6216,0.6217,0.6218,0.6235,0.6238,0.6241,0,0,0,0,0,0.617,0.6182,0.6179,0.6181,0.6188,0.6197,0.6198,0.6193,0.6186,0.6192,0.6191,0.6183,0.6198,0.619,0.6192,0.6201,0.6215,0.6217,0.6218,0.6234,0.6238,0.6241,0,0,0,0,0,0,0.6181,0.6182,0.6179,0.6192,0.6195,0.6195,0.6202,0.6197,0.6201,0.6199,0.6192,0.6192,0.6204,0.6204,0.6195,0.6217,0.6205,0.6207,0.6217,0.622,0.6223,0.6223,0.6182,0,0,0,0,0,0.6186,0.6193,0.6193,0.6205,0.6206,0.6204,0.6207,0.6204,0.6206,0.6207,0.6206,0.6208,0.6213,0.6216,0.6221,0.6235,0.6236,0.6243,0.6245,0.6248,0.625,0.6259,0.6263,0.6224,0.6224,0.6224,0,0,0.6194,0.6195,0.62,0.6207,0.6209,0.6217,0.6205,0.6213,0.6219,0.6208,0.6218,0.6218,0.6219,0.6232,0.6238,0.6232,0.626,0.625,0.6252,0.6252,0.6261,0.6265,0.6268,0.6225,0.6225,0.6225,0,0,0.6213,0.6215,0.6226,0.6228,0.6232,0.6231,0.6233,0.6235,0.6235,0.6245,0.6238,0.6244,0.6253,0.6255,0.6257,0.6281,0.6274,0.6282,0.6297,0.6306,0.6309,0.6312,0.6321,0.6325,0.6284,0.6284,0.6284,0,0.6223,0.6235,0.6231,0.6241,0.6245,0.6237,0.6249,0.6251,0.6255,0.6258,0.6252,0.6265,0.6265,0.6279,0.6285,0.6287,0.629,0.6282,0.6309,0.6312,0.6314,0.6323,0.6327,0.6285,0.6285,0.6285,0.6285,0,0.6248,0.6256,0.6264,0.6271,0.6276,0.6286,0.6284,0.6289,0.6286,0.6286,0.6298,0.6298,0.6304,0.6307,0.6302,0.6321,0.6318,0.631,0.6299,0.6319,0.6328,0.6331,0.6286,0.6286,0.6286,0.6285,0,0,0.6273,0.628,0.6283,0.6287,0.6291,0.6297,0.6308,0.6315,0.632,0.6324,0.6333,0.6342,0.6336,0.6339,0.6335,0.6343,0.6364,0.6335,0.6335,0.6341,0.6386,0.6392,0.6396,0.6359,0.636,0.636,0.6386,0,0.6293,0.6313,0.6311,0.6329,0.6338,0.6332,0.6341,0.6345,0.6345,0.6352,0.6352,0.6359,0.635,0.6352,0.636,0.6359,0.6373,0.6357,0.6368,0.6368,0.6369,0.6401,0.6407,0.6431,0.639,0.639,0.639,0,0.6319,0.6326,0.6346,0.6352,0.6355,0.6364,0.6372,0.6378,0.6383,0.6383,0.6387,0.6383,0.6393,0.6382,0.6397,0.6387,0.6391,0.6392,0.6393,0.6394,0.6381,0.6404,0.6439,0.6443,0.6395,0.6395,0.6395,0,0.6338,0.6352,0.6366,0.637,0.6376,0.6382,0.6385,0.6389,0.6395,0.6401,0.6404,0.6411,0.6415,0.6421,0.6418,0.641,0.6435,0.6422,0.6435,0.6436,0.6441,0.6441,0.6478,0.6442,0.6442,0.6442,0.6442,0,0.6361,0.6374,0.6375,0.6384,0.6398,0.6397,0.6411,0.6412,0.6417,0.6426,0.642,0.6429,0.6425,0.6433,0.6431,0.6446,0.6447,0.6447,0.6447,0.6449,0.6449,0.6452,0.645,0.6443,0.6443,0.6443,0.6442,0,0.6384,0.6385,0.6401,0.6407,0.6409,0.6419,0.6424,0.6432,0.6433,0.6445,0.6447,0.6448,0.6458,0.6457,0.6467,0.6466,0.6484,0.648,0.6483,0.6483,0.6496,0.6496,0.6538,0.6544,0.6502,0.6503,0.6503,0,0.6399,0.6409,0.6417,0.6424,0.6428,0.6438,0.6444,0.6443,0.645,0.6457,0.6465,0.6475,0.6483,0.6499,0.65,0.6508,0.6506,0.652,0.6507,0.6509,0.6508,0.6508,0.651,0.6523,0.6523,0.6524,0.6524,0,0.6427,0.6428,0.6437,0.6448,0.6456,0.6464,0.6471,0.6477,0.6476,0.6484,0.6495,0.6502,0.6514,0.6524,0.6532,0.6535,0.653,0.6528,0.6532,0.6534,0.6536,0.6537,0.6491,0.6527,0.6527,0.6527,0.6527,0.6527,0.6447,0.6457,0.6465,0.6477,0.6482,0.649,0.6499,0.6502,0.6512,0.6523,0.6521,0.6534,0.654,0.6552,0.6555,0.6565,0.656,0.6565,0.6566,0.6568,0.657,0.6534,0.6566,0.6566,0.6566,0.6566,0.6566,0,0.6476,0.6482,0.6492,0.6504,0.6514,0.651,0.6518,0.6526,0.6538,0.6545,0.6554,0.6568,0.6578,0.6581,0.6591,0.6599,0.6597,0.6602,0.6602,0.6603,0.6574,0.657,0.6603,0.6603,0.6603,0.6603,0.6603,0.6603,0.6492,0.6509,0.6511,0.6532,0.6537,0.6551,0.6556,0.6564,0.6569,0.6586,0.6595,0.6598,0.6603,0.6614,0.6624,0.6625,0.6629,0.6635,0.6635,0.6608,0.6604,0.6601,0.6598,0.6636,0.6636,0.6664,0.6664,0.6664]},{"header":{"parameterUnit":"m.s-1","parameterCategory":1,"la1":30.2991,"la2":30.254,"lo1":-89.0895,"lo2":-89.0444,"dy":0.0017,"dx":0.0017,"nx":28,"ny":28,"refTime":"2024-08-04T21:00:00:Z","depth":0,"parameterNumber":3,"parameterNumberName":"V-component_of_WINDS"},"data":[0,0,0,0,0,0,0,0,0,0,0,0,0,0,0,0,0,0,0,0,0,0,0,0,0,0,0,0,0,0,0,0,0,0,0,0,0,0,0,0,0,0,0,0,0,0,0,0,0,0,0,0,0,0,0,0,0,0,-1.5744,-1.5745,0,-1.5787,-1.5788,-1.5788,-1.5808,-1.5808,-1.5808,-1.5808,-1.5849,-1.585,-1.5851,0,0,0,0,0,0,0,0,0,0,0,0,0,-1.5678,-1.5679,-1.5744,-1.5745,-1.5745,-1.5787,-1.5788,-1.5788,-1.5808,-1.5808,-1.5808,-1.5808,-1.5848,-1.585,-1.5851,0,0,0,0,0,0,0,0,0,0,0,0,0,-1.5712,-1.568,-1.5744,-1.5761,-1.5762,-1.5787,-1.5788,-1.5788,-1.5808,-1.5808,-1.5808,-1.5808,-1.5848,-1.585,-1.5851,-1.5861,0,0,-1.5856,-1.5857,0,0,0,0,0,0,0,0,-1.571,-1.5715,-1.5758,-1.5759,-1.5762,-1.5792,-1.5779,-1.5813,-1.5808,-1.5791,-1.5808,-1.5808,-1.583,-1.5833,-1.5841,-1.5863,-1.5865,-1.5856,-1.5857,-1.5858,-1.5858,0,0,0,0,0,0,0,-1.5708,-1.5713,-1.5761,-1.5758,-1.5761,-1.5765,-1.577,-1.5786,-1.581,-1.5792,-1.5794,-1.5799,-1.5831,-1.5839,-1.5842,-1.5866,-1.5856,-1.5858,-1.5859,-1.5859,-1.59,-1.59,0,0,0,0,0,0,-1.5703,-1.5711,-1.576,-1.5762,-1.5736,-1.5766,-1.5772,-1.5782,-1.581,-1.5814,-1.5799,-1.58,-1.5836,-1.584,-1.5843,-1.5858,-1.5858,-1.5859,-1.586,-1.59,-1.59,-1.59,0,0,0,0,0,0,-1.5702,-1.5707,-1.5758,-1.5737,-1.5744,-1.5767,-1.5779,-1.5783,-1.5792,-1.5815,-1.5819,-1.5803,-1.5837,-1.5841,-1.5857,-1.586,-1.586,-1.5862,-1.59,-1.59,-1.59,-1.5887,0,0,0,0,0,0,-1.57,-1.5707,-1.5711,-1.5737,-1.5745,-1.5772,-1.578,-1.5784,-1.5795,-1.5796,-1.582,-1.5824,-1.5837,-1.5855,-1.5859,-1.5862,-1.5863,-1.59,-1.59,-1.59,-1.5887,-1.5886,-1.5886,0,0,0,0,0,-1.5697,-1.5705,-1.5711,-1.5717,-1.5751,-1.5772,-1.5776,-1.5792,-1.5795,-1.58,-1.5815,-1.5823,-1.5859,-1.5856,-1.5861,-1.5864,-1.5899,-1.59,-1.59,-1.5887,-1.5886,-1.5886,0,0,0,0,0,0,-1.5677,-1.5708,-1.5716,-1.5732,-1.575,-1.5775,-1.5781,-1.5791,-1.5807,-1.5807,-1.5826,-1.5831,-1.5845,-1.5857,-1.5853,-1.5877,-1.588,-1.5881,-1.5869,-1.5868,-1.5867,-1.5864,-1.5864,0,0,0,0,0,-1.5675,-1.569,-1.5716,-1.5728,-1.5736,-1.5757,-1.5767,-1.5778,-1.5796,-1.5803,-1.5819,-1.5835,-1.5851,-1.586,-1.5875,-1.5889,-1.5894,-1.5894,-1.5893,-1.5892,-1.5893,-1.5902,-1.5902,-1.5901,-1.5901,-1.5901,0,0,-1.5669,-1.5689,-1.5697,-1.5724,-1.5739,-1.5753,-1.5763,-1.5778,-1.5789,-1.5805,-1.5822,-1.5834,-1.5853,-1.5869,-1.5876,-1.5878,-1.5895,-1.5893,-1.5892,-1.5893,-1.5902,-1.5902,-1.5902,-1.5901,-1.5901,-1.5901,0,0,-1.5667,-1.5683,-1.5696,-1.571,-1.5733,-1.5747,-1.575,-1.5775,-1.5785,-1.5802,-1.5815,-1.5828,-1.5853,-1.5867,-1.5877,-1.5882,-1.5891,-1.5887,-1.5883,-1.5891,-1.5892,-1.5892,-1.5894,-1.5894,-1.5887,-1.5887,-1.5887,0,-1.5658,-1.5681,-1.57,-1.5715,-1.5726,-1.5744,-1.5756,-1.5769,-1.5795,-1.5802,-1.5805,-1.5839,-1.5853,-1.5872,-1.5873,-1.5881,-1.5885,-1.5884,-1.589,-1.5891,-1.5891,-1.5893,-1.5894,-1.5887,-1.5887,-1.5887,-1.5887,0,-1.5668,-1.5684,-1.5691,-1.5717,-1.573,-1.5743,-1.5764,-1.5774,-1.5785,-1.5799,-1.5817,-1.5835,-1.5854,-1.586,-1.5869,-1.588,-1.5881,-1.5887,-1.5891,-1.589,-1.5892,-1.5893,-1.5886,-1.5886,-1.5886,-1.5886,0,0,-1.5653,-1.5691,-1.5693,-1.5706,-1.5733,-1.5745,-1.5759,-1.578,-1.5789,-1.5806,-1.5818,-1.5841,-1.5847,-1.5858,-1.587,-1.5877,-1.5881,-1.5882,-1.5883,-1.5881,-1.5894,-1.589,-1.589,-1.5887,-1.5887,-1.5887,-1.5893,0,-1.5654,-1.5682,-1.57,-1.572,-1.5735,-1.5752,-1.5765,-1.5782,-1.5796,-1.5811,-1.5825,-1.5841,-1.5848,-1.5855,-1.5863,-1.5879,-1.5884,-1.5878,-1.5898,-1.5898,-1.5892,-1.5892,-1.5886,-1.5891,-1.5894,-1.5894,-1.5894,0,-1.5659,-1.5678,-1.57,-1.5727,-1.5734,-1.5745,-1.5766,-1.5779,-1.58,-1.581,-1.5824,-1.5836,-1.5851,-1.5855,-1.5876,-1.5872,-1.5881,-1.589,-1.5891,-1.5893,-1.5896,-1.5893,-1.5892,-1.5893,-1.5896,-1.5895,-1.5895,0,-1.5646,-1.5677,-1.5694,-1.5704,-1.5736,-1.5743,-1.5757,-1.5778,-1.5789,-1.5807,-1.5815,-1.5834,-1.5844,-1.5859,-1.5876,-1.5877,-1.5896,-1.59,-1.5904,-1.5903,-1.5906,-1.5905,-1.5906,-1.5913,-1.5913,-1.5913,-1.5913,0,-1.5645,-1.5658,-1.5689,-1.5699,-1.5714,-1.5735,-1.5749,-1.5764,-1.5782,-1.5796,-1.5812,-1.5824,-1.5846,-1.5861,-1.5874,-1.589,-1.5894,-1.5902,-1.5906,-1.5901,-1.59,-1.5906,-1.5906,-1.5913,-1.5913,-1.5913,-1.5913,0,-1.5632,-1.5654,-1.5674,-1.5703,-1.5711,-1.572,-1.5745,-1.5755,-1.5771,-1.5788,-1.5793,-1.5817,-1.5835,-1.5854,-1.5878,-1.5887,-1.5903,-1.5908,-1.5896,-1.5898,-1.59,-1.59,-1.5905,-1.5907,-1.5912,-1.5912,-1.5912,0,-1.563,-1.5641,-1.5672,-1.5683,-1.5696,-1.5713,-1.5726,-1.5747,-1.5759,-1.5785,-1.5792,-1.5812,-1.5829,-1.5858,-1.5876,-1.5895,-1.5901,-1.5901,-1.5903,-1.5898,-1.59,-1.59,-1.5901,-1.59,-1.59,-1.59,-1.59,0,-1.5624,-1.5635,-1.5653,-1.5675,-1.569,-1.5708,-1.5727,-1.5735,-1.576,-1.5773,-1.5793,-1.5806,-1.5832,-1.5851,-1.5873,-1.5886,-1.5897,-1.5899,-1.5901,-1.5896,-1.5889,-1.5893,-1.5894,-1.5899,-1.5899,-1.5899,-1.5899,-1.5899,-1.5617,-1.5627,-1.5651,-1.5671,-1.5688,-1.5705,-1.5717,-1.5735,-1.5753,-1.5776,-1.5788,-1.5808,-1.5829,-1.586,-1.5873,-1.5888,-1.5891,-1.5893,-1.5894,-1.5894,-1.5893,-1.5887,-1.5892,-1.5892,-1.5892,-1.5892,-1.5892,0,-1.5611,-1.5628,-1.5647,-1.5673,-1.5689,-1.57,-1.5722,-1.5734,-1.5751,-1.5771,-1.5788,-1.5811,-1.5831,-1.5852,-1.5873,-1.5881,-1.5887,-1.5886,-1.5885,-1.5888,-1.5889,-1.5886,-1.5881,-1.5881,-1.5881,-1.5881,-1.5881,-1.5881,-1.5611,-1.5629,-1.5643,-1.567,-1.5687,-1.5707,-1.5719,-1.5735,-1.5751,-1.5777,-1.5794,-1.5808,-1.5829,-1.5851,-1.5869,-1.5875,-1.5882,-1.5879,-1.5886,-1.5887,-1.5888,-1.5888,-1.5885,-1.5881,-1.5881,-1.5884,-1.5884,-1.5884]}]]